Time,TemperatureF,DewpointF,PressureIn,WindDirection,WindDirectionDegrees,WindSpeedMPH,WindSpeedGustMPH,Humidity,HourlyPrecipIn,Conditions,Clouds,dailyrainin,SoftwareType,DateUTC
2015-08-02 00:03:00,74.0,67.0,29.82,West,277,0.0,2.0,79,-99.99,,,-99.99,,2015-08-02 05:03:00,
2015-08-02 00:13:00,74.0,67.0,29.82,West,277,0.0,2.0,79,-99.99,,,-99.99,,2015-08-02 05:13:00,
2015-08-02 00:24:00,74.0,67.0,29.82,West,277,0.0,0.0,78,-99.99,,,-99.99,,2015-08-02 05:24:00,
2015-08-02 00:33:00,73.0,66.0,29.81,West,277,0.0,0.0,78,-99.99,,,-99.99,,2015-08-02 05:33:00,
2015-08-02 00:44:00,73.0,66.0,29.81,West,277,0.0,0.0,78,-99.99,,,-99.99,,2015-08-02 05:44:00,
2015-08-02 00:54:00,73.0,67.0,29.81,West,277,0.0,0.0,82,-99.99,,,-99.99,,2015-08-02 05:54:00,
2015-08-02 01:04:00,72.0,66.0,29.81,West,277,0.0,0.0,81,-99.99,,,-99.99,,2015-08-02 06:04:00,
2015-08-02 01:13:00,72.0,66.0,29.81,West,277,0.0,0.0,81,-99.99,,,-99.99,,2015-08-02 06:13:00,
2015-08-02 01:24:00,72.0,67.0,29.80,West,277,0.0,0.0,83,-99.99,,,-99.99,,2015-08-02 06:24:00,
2015-08-02 01:33:00,72.0,67.0,29.80,West,277,0.0,0.0,83,-99.99,,,-99.99,,2015-08-02 06:33:00,
2015-08-02 01:44:00,72.0,67.0,29.80,West,277,0.0,0.0,83,-99.99,,,-99.99,,2015-08-02 06:44:00,
2015-08-02 01:54:00,72.0,67.0,29.80,West,277,0.0,0.0,84,-99.99,,,-99.99,,2015-08-02 06:54:00,
2015-08-02 02:03:00,71.0,66.0,29.80,West,277,0.0,0.0,85,-99.99,,,-99.99,,2015-08-02 07:03:00,
2015-08-02 02:12:00,71.0,66.0,29.80,West,277,0.0,0.0,85,-99.99,,,-99.99,,2015-08-02 07:12:00,
2015-08-02 02:23:00,71.0,67.0,29.80,West,277,0.0,0.0,86,-99.99,,,-99.99,,2015-08-02 07:23:00,
2015-08-02 02:34:00,71.0,67.0,29.80,West,277,0.0,0.0,87,-99.99,,,-99.99,,2015-08-02 07:34:00,
2015-08-02 02:44:00,71.0,67.0,29.80,West,277,0.0,0.0,87,-99.99,,,-99.99,,2015-08-02 07:44:00,
2015-08-02 02:53:00,71.0,67.0,29.79,West,277,0.0,0.0,87,-99.99,,,-99.99,,2015-08-02 07:53:00,
2015-08-02 03:03:00,71.0,67.0,29.79,West,277,0.0,1.0,87,-99.99,,,-99.99,,2015-08-02 08:03:00,
2015-08-02 03:13:00,71.0,67.0,29.79,West,277,0.0,1.0,87,-99.99,,,-99.99,,2015-08-02 08:13:00,
2015-08-02 03:23:00,72.0,68.0,29.79,West,277,0.0,-999.0,88,-99.99,,,-99.99,,2015-08-02 08:23:00,
2015-08-02 03:33:00,72.0,68.0,29.79,West,277,0.0,2.0,88,-99.99,,,-99.99,,2015-08-02 08:33:00,
2015-08-02 03:43:00,72.0,68.0,29.79,West,277,0.0,2.0,88,-99.99,,,-99.99,,2015-08-02 08:43:00,
2015-08-02 03:53:00,71.0,67.0,29.79,West,277,0.0,0.0,88,-99.99,,,-99.99,,2015-08-02 08:53:00,
2015-08-02 04:03:00,71.0,67.0,29.79,West,277,0.0,0.0,88,-99.99,,,-99.99,,2015-08-02 09:03:00,
2015-08-02 04:12:00,71.0,67.0,29.79,West,277,0.0,0.0,88,-99.99,,,-99.99,,2015-08-02 09:12:00,
2015-08-02 04:24:00,70.0,66.0,29.79,West,277,0.0,0.0,88,-99.99,,,-99.99,,2015-08-02 09:24:00,
2015-08-02 04:33:00,70.0,67.0,29.79,West,277,0.0,1.0,89,-99.99,,,-99.99,,2015-08-02 09:33:00,
2015-08-02 04:43:00,70.0,67.0,29.79,West,277,0.0,1.0,89,-99.99,,,-99.99,,2015-08-02 09:43:00,
2015-08-02 04:53:00,69.0,66.0,29.79,West,277,0.0,1.0,89,-99.99,,,-99.99,,2015-08-02 09:53:00,
2015-08-02 05:03:00,69.0,66.0,29.79,West,277,0.0,1.0,90,-99.99,,,-99.99,,2015-08-02 10:03:00,
2015-08-02 05:12:00,69.0,66.0,29.79,West,277,0.0,1.0,90,-99.99,,,-99.99,,2015-08-02 10:12:00,
2015-08-02 05:26:00,69.0,66.0,29.79,West,277,0.0,0.0,90,-99.99,,,-99.99,,2015-08-02 10:26:00,
2015-08-02 05:33:00,69.0,66.0,29.79,West,277,0.0,0.0,91,-99.99,,,-99.99,,2015-08-02 10:33:00,
2015-08-02 05:43:00,69.0,66.0,29.79,West,277,0.0,0.0,91,-99.99,,,-99.99,,2015-08-02 10:43:00,
2015-08-02 05:54:00,69.0,66.0,29.79,West,277,0.0,0.0,91,-99.99,,,-99.99,,2015-08-02 10:54:00,
2015-08-02 06:03:00,69.0,66.0,29.78,West,277,0.0,0.0,91,-99.99,,,-99.99,,2015-08-02 11:03:00,
2015-08-02 06:13:00,69.0,66.0,29.78,West,277,0.0,0.0,91,-99.99,,,-99.99,,2015-08-02 11:13:00,
2015-08-02 06:23:00,68.0,65.0,29.78,West,277,0.0,0.0,91,-99.99,,,-99.99,,2015-08-02 11:23:00,
2015-08-02 06:33:00,68.0,65.0,29.78,West,277,0.0,0.0,91,-99.99,,,-99.99,,2015-08-02 11:33:00,
2015-08-02 06:43:00,68.0,65.0,29.78,West,277,0.0,0.0,91,-99.99,,,-99.99,,2015-08-02 11:43:00,
2015-08-02 06:54:00,68.0,65.0,29.78,West,277,0.0,0.0,91,-99.99,,,-99.99,,2015-08-02 11:54:00,
2015-08-02 07:03:00,68.0,65.0,29.79,West,277,0.0,0.0,91,-99.99,,,-99.99,,2015-08-02 12:03:00,
2015-08-02 07:13:00,68.0,65.0,29.79,West,277,0.0,0.0,91,-99.99,,,-99.99,,2015-08-02 12:13:00,
2015-08-02 07:24:00,69.0,66.0,29.79,West,277,0.0,0.0,91,-99.99,,,-99.99,,2015-08-02 12:24:00,
2015-08-02 07:34:00,71.0,68.0,29.79,West,277,0.0,0.0,91,-99.99,,,-99.99,,2015-08-02 12:34:00,
2015-08-02 07:44:00,71.0,68.0,29.79,West,277,0.0,0.0,91,-99.99,,,-99.99,,2015-08-02 12:44:00,
2015-08-02 07:54:00,72.0,69.0,29.80,West,277,0.0,0.0,89,-99.99,,,-99.99,,2015-08-02 12:54:00,
2015-08-02 08:03:00,74.0,70.0,29.79,West,277,0.0,2.0,87,-99.99,,,-99.99,,2015-08-02 13:03:00,
2015-08-02 08:13:00,74.0,70.0,29.79,West,277,0.0,2.0,87,-99.99,,,-99.99,,2015-08-02 13:13:00,
2015-08-02 08:23:00,74.0,70.0,29.80,SSE,147,2.0,5.0,87,-99.99,,,-99.99,,2015-08-02 13:23:00,
2015-08-02 08:33:00,75.0,70.0,29.80,SE,146,0.0,4.0,85,-99.99,,,-99.99,,2015-08-02 13:33:00,
2015-08-02 08:44:00,75.0,70.0,29.80,SE,146,0.0,4.0,85,-99.99,,,-99.99,,2015-08-02 13:44:00,
2015-08-02 08:53:00,77.0,71.0,29.80,SE,146,0.0,3.0,81,-99.99,,,-99.99,,2015-08-02 13:53:00,
2015-08-02 09:03:00,79.0,72.0,29.80,SE,146,1.0,4.0,79,-99.99,,,-99.99,,2015-08-02 14:03:00,
2015-08-02 09:12:00,79.0,72.0,29.80,SE,146,1.0,4.0,79,-99.99,,,-99.99,,2015-08-02 14:12:00,
2015-08-02 09:24:00,79.0,73.0,29.80,SSE,153,0.0,4.0,81,-99.99,,,-99.99,,2015-08-02 14:24:00,
2015-08-02 09:33:00,79.0,72.0,29.80,SSE,154,0.0,4.0,78,-99.99,,,-99.99,,2015-08-02 14:33:00,
2015-08-02 09:43:00,79.0,72.0,29.80,SSE,154,0.0,4.0,78,-99.99,,,-99.99,,2015-08-02 14:43:00,
2015-08-02 09:53:00,80.0,72.0,29.80,South,185,1.0,5.0,76,-99.99,,,-99.99,,2015-08-02 14:53:00,
2015-08-02 10:03:00,82.0,72.0,29.80,South,173,1.0,4.0,73,-99.99,,,-99.99,,2015-08-02 15:03:00,
2015-08-02 10:12:00,82.0,72.0,29.80,South,173,1.0,4.0,73,-99.99,,,-99.99,,2015-08-02 15:12:00,
2015-08-02 10:23:00,82.0,73.0,29.80,South,180,3.0,5.0,74,-99.99,,,-99.99,,2015-08-02 15:23:00,
2015-08-02 10:34:00,83.0,72.0,29.80,SSW,196,4.0,8.0,69,-99.99,,,-99.99,,2015-08-02 15:34:00,
2015-08-02 10:43:00,83.0,72.0,29.80,SSW,196,4.0,8.0,69,-99.99,,,-99.99,,2015-08-02 15:43:00,
2015-08-02 10:53:00,83.0,72.0,29.80,WSW,250,3.0,7.0,69,-99.99,,,-99.99,,2015-08-02 15:53:00,
2015-08-02 11:03:00,84.0,73.0,29.80,WSW,238,2.0,6.0,69,-99.99,,,-99.99,,2015-08-02 16:03:00,
2015-08-02 11:13:00,84.0,73.0,29.80,WSW,238,2.0,6.0,69,-99.99,,,-99.99,,2015-08-02 16:13:00,
2015-08-02 11:23:00,85.0,73.0,29.80,SW,224,1.0,6.0,68,-99.99,,,-99.99,,2015-08-02 16:23:00,
2015-08-02 11:35:00,85.0,70.0,29.80,SW,221,4.0,9.0,62,-99.99,,,-99.99,,2015-08-02 16:35:00,
2015-08-02 11:46:00,85.0,70.0,29.80,SW,221,4.0,9.0,62,-99.99,,,-99.99,,2015-08-02 16:46:00,
2015-08-02 11:54:00,87.0,71.0,29.80,SSW,196,4.0,9.0,59,-99.99,,,-99.99,,2015-08-02 16:54:00,
2015-08-02 12:04:00,87.0,71.0,29.80,SSW,196,4.0,9.0,59,-99.99,,,-99.99,,2015-08-02 17:04:00,
2015-08-02 12:14:00,88.0,70.0,29.80,WSW,258,2.0,8.0,56,-99.99,,,-99.99,,2015-08-02 17:14:00,
2015-08-02 12:23:00,88.0,70.0,29.79,SSW,195,3.0,9.0,55,-99.99,,,-99.99,,2015-08-02 17:23:00,
2015-08-02 12:34:00,88.0,70.0,29.79,SSW,195,3.0,9.0,55,-99.99,,,-99.99,,2015-08-02 17:34:00,
2015-08-02 12:44:00,88.0,69.0,29.79,SSW,198,5.0,8.0,53,-99.99,,,-99.99,,2015-08-02 17:44:00,
2015-08-02 13:04:00,88.0,70.0,29.78,SW,223,6.0,12.0,55,-99.99,,,-99.99,,2015-08-02 18:04:00,
2015-08-02 13:13:00,89.0,69.0,29.78,WSW,254,4.0,10.0,52,-99.99,,,-99.99,,2015-08-02 18:13:00,
2015-08-02 13:23:00,89.0,66.0,29.78,NW,316,6.0,10.0,47,-99.99,,,-99.99,,2015-08-02 18:23:00,
2015-08-02 13:34:00,89.0,66.0,29.78,NW,316,6.0,10.0,47,-99.99,,,-99.99,,2015-08-02 18:34:00,
2015-08-02 13:44:00,90.0,68.0,29.77,WSW,250,4.0,11.0,49,-99.99,,,-99.99,,2015-08-02 18:44:00,
2015-08-02 13:53:00,90.0,68.0,29.77,SSW,208,6.0,13.0,49,-99.99,,,-99.99,,2015-08-02 18:53:00,
2015-08-02 14:04:00,90.0,68.0,29.77,SSW,208,6.0,13.0,49,-99.99,,,-99.99,,2015-08-02 19:04:00,
2015-08-02 14:13:00,91.0,69.0,29.77,WSW,255,3.0,10.0,48,-99.99,,,-99.99,,2015-08-02 19:13:00,
2015-08-02 14:23:00,90.0,66.0,29.77,West,281,3.0,11.0,45,-99.99,,,-99.99,,2015-08-02 19:23:00,
2015-08-02 14:34:00,90.0,66.0,29.77,West,281,3.0,11.0,45,-99.99,,,-99.99,,2015-08-02 19:34:00,
2015-08-02 14:46:00,90.0,66.0,29.77,SW,236,9.0,17.0,45,-99.99,,,-99.99,,2015-08-02 19:46:00,
2015-08-02 14:53:00,90.0,66.0,29.77,WSW,257,4.0,15.0,46,-99.99,,,-99.99,,2015-08-02 19:53:00,
2015-08-02 15:03:00,90.0,66.0,29.77,WSW,257,4.0,15.0,46,-99.99,,,-99.99,,2015-08-02 20:03:00,
2015-08-02 15:13:00,91.0,67.0,29.76,WSW,247,7.0,13.0,45,-99.99,,,-99.99,,2015-08-02 20:13:00,
2015-08-02 15:23:00,90.0,68.0,29.76,WNW,284,4.0,10.0,48,-99.99,,,-99.99,,2015-08-02 20:23:00,
2015-08-02 15:33:00,90.0,68.0,29.76,WNW,284,4.0,10.0,48,-99.99,,,-99.99,,2015-08-02 20:33:00,
2015-08-02 15:44:00,90.0,68.0,29.76,WSW,248,4.0,9.0,48,-99.99,,,-99.99,,2015-08-02 20:44:00,
2015-08-02 15:53:00,90.0,66.0,29.75,WSW,257,5.0,11.0,45,-99.99,,,-99.99,,2015-08-02 20:53:00,
2015-08-02 16:03:00,90.0,66.0,29.75,WSW,257,5.0,11.0,45,-99.99,,,-99.99,,2015-08-02 21:03:00,
2015-08-02 16:13:00,91.0,67.0,29.75,West,272,4.0,11.0,45,-99.99,,,-99.99,,2015-08-02 21:13:00,
2015-08-02 16:24:00,91.0,67.0,29.75,West,272,4.0,11.0,45,-99.99,,,-99.99,,2015-08-02 21:24:00,
2015-08-02 16:33:00,91.0,67.0,29.75,West,272,4.0,11.0,45,-99.99,,,-99.99,,2015-08-02 21:33:00,
2015-08-02 16:46:00,91.0,63.0,29.75,WSW,244,5.0,12.0,40,-99.99,,,-99.99,,2015-08-02 21:46:00,
2015-08-02 17:03:00,91.0,63.0,29.74,West,277,5.0,13.0,40,-99.99,,,-99.99,,2015-08-02 22:03:00,
2015-08-02 17:15:00,89.0,63.0,29.74,WNW,291,2.0,10.0,42,-99.99,,,-99.99,,2015-08-02 22:15:00,
2015-08-02 17:23:00,90.0,65.0,29.74,West,272,5.0,11.0,44,-99.99,,,-99.99,,2015-08-02 22:23:00,
2015-08-02 17:34:00,90.0,65.0,29.74,West,272,5.0,11.0,44,-99.99,,,-99.99,,2015-08-02 22:34:00,
2015-08-02 17:45:00,90.0,64.0,29.74,North,-9999,-999.9,-999.0,42,-99.99,,,-99.99,,2015-08-02 22:45:00,
2015-08-02 17:55:00,90.0,66.0,29.74,WSW,254,-999.9,-999.0,46,-99.99,,,-99.99,,2015-08-02 22:55:00,
2015-08-02 18:13:00,90.0,66.0,29.74,WNW,284,5.0,9.0,45,-99.99,,,-99.99,,2015-08-02 23:13:00,
2015-08-02 18:23:00,90.0,66.0,29.73,West,279,4.0,9.0,46,-99.99,,,-99.99,,2015-08-02 23:23:00,
2015-08-02 18:34:00,90.0,66.0,29.73,West,279,4.0,9.0,46,-99.99,,,-99.99,,2015-08-02 23:34:00,
2015-08-02 18:46:00,90.0,66.0,29.72,WSW,256,4.0,8.0,45,-99.99,,,-99.99,,2015-08-02 23:46:00,
2015-08-02 18:53:00,90.0,66.0,29.72,West,259,2.0,7.0,46,-99.99,,,-99.99,,2015-08-02 23:53:00,
2015-08-02 19:03:00,90.0,66.0,29.72,West,259,2.0,7.0,46,-99.99,,,-99.99,,2015-08-03 00:03:00,
2015-08-02 19:13:00,90.0,66.0,29.72,West,277,2.0,5.0,46,-99.99,,,-99.99,,2015-08-03 00:13:00,
2015-08-02 19:23:00,89.0,68.0,29.72,WNW,283,1.0,6.0,50,-99.99,,,-99.99,,2015-08-03 00:23:00,
2015-08-02 19:34:00,89.0,68.0,29.72,WNW,283,1.0,6.0,50,-99.99,,,-99.99,,2015-08-03 00:34:00,
2015-08-02 19:44:00,88.0,67.0,29.72,West,274,3.0,5.0,50,-99.99,,,-99.99,,2015-08-03 00:44:00,